Hilo, HI

9:11 AM HST on March 27, 2017 (GMT -1000)
Hilo International

Weather History for PHTO - August, 2013

Change the Weather History Date:

Thursday, August 29, 2013

  Actual Average Record
Temperature  
Mean Temperature 77 °F 76 °F  
Max Temperature 84 °F 83 °F 88 °F (2007)
Min Temperature 70 °F 70 °F 64 °F (1950)
Degree Days  
Heating Degree Days 0 0  
Month to date heating degree days 0 0  
Since 1 June heating degree days 0 0  
Since 1 July heating degree days 0 0  
Cooling Degree Days 12 11  
Month to date cooling degree days 328 319  
Year to date cooling degree days 2183 2036  
Since 1 June cooling degree days 1030 968  
Growing Degree Days 26 (Base 50)    
Moisture  
Dew Point 67 °F    
Average Humidity 74    
Maximum Humidity 93    
Minimum Humidity 55    
Precipitation  
Precipitation 0.00 in 0.28 in 9.24 in (1957)
Month to date precipitation 7.87 9.27  
Year to date precipitation 63.71 79.36  
Snow  
Snow 0.00 in - - ()
Month to date snowfall 0.0  
Since 1 June snowfall 0.0  
Since 1 July snowfall 0.0  
Snow Depth 0.00 in    
Sea Level Pressure  
Sea Level Pressure 29.94 in    
Wind  
Wind Speed 6 mph (SSE)    
Max Wind Speed 14 mph    
Max Gust Speed 18 mph    
Visibility 10 miles    
Events Rain    
T = Trace of Precipitation, MM = Missing Value Source: NWS Daily Summary

Daily Weather History Graph

Daily Weather History Graph

Search for Another Location

Airport or City:

Trip Planner

Search our weather history database for the weather conditions in past years. The results will help you decide how hot, cold, wet, or windy it might be!

Date:

Astronomy

Aug. 29, 2013 Rise Set
Actual Time 6:04 AM HST 6:37 PM HST
Civil Twilight 5:41 AM HST 6:59 PM HST
Nautical Twilight 5:15 AM HST 7:25 PM HST
Astronomical Twilight 4:49 AM HST 7:52 PM HST
Moon 12:27 AM HST (8/29) 1:51 PM HST (8/29)
Length of Visible Light 13h 17m
Length of Day
12h 33m
Waning Crescent, 36% of the Moon is Illuminated
Aug 29
Waning Crescent
Sep 5
New
Sep 12
First Quarter
Sep 19
Full
Sep 26
Last Quarter

Hourly Weather History & Observations

Time (HST) Temp. Heat Index Dew Point Humidity Pressure Visibility Wind Dir Wind Speed Gust Speed Precip Events Conditions
12:53 AM 71.1 °F - 69.1 °F 93% 29.94 in 10.0 mi Calm Calm - 0.08 in   Overcast
1:53 AM 71.1 °F - 69.1 °F 93% 29.93 in 10.0 mi Calm Calm - N/A Rain Light Rain
2:53 AM 71.1 °F - 69.1 °F 93% 29.91 in 10.0 mi WSW 5.8 mph - 0.06 in   Mostly Cloudy
3:53 AM 71.1 °F - 68.0 °F 90% 29.90 in 10.0 mi SW 4.6 mph - N/A   Mostly Cloudy
4:53 AM 71.1 °F - 68.0 °F 90% 29.91 in 10.0 mi SW 3.5 mph - N/A   Mostly Cloudy
5:53 AM 70.0 °F - 66.9 °F 90% 29.93 in 10.0 mi SW 3.5 mph - N/A   Scattered Clouds
6:53 AM 70.0 °F - 66.0 °F 87% 29.94 in 10.0 mi SW 5.8 mph - N/A   Scattered Clouds
7:53 AM 75.0 °F - 68.0 °F 79% 29.95 in 10.0 mi Calm Calm - N/A   Scattered Clouds
8:53 AM 79.0 °F - 68.0 °F 69% 29.96 in 10.0 mi North 5.8 mph - N/A   Partly Cloudy
9:53 AM 81.0 °F 83.0 °F 66.0 °F 60% 29.97 in 10.0 mi North 5.8 mph - N/A   Partly Cloudy
10:53 AM 82.0 °F 83.4 °F 64.0 °F 54% 29.96 in 10.0 mi NE 5.8 mph - N/A   Partly Cloudy
11:53 AM 82.9 °F 85.0 °F 66.0 °F 56% 29.94 in 10.0 mi NNE 9.2 mph - N/A   Scattered Clouds
12:53 PM 82.9 °F 85.0 °F 66.0 °F 56% 29.93 in 10.0 mi ENE 10.4 mph - N/A   Scattered Clouds
1:53 PM 82.9 °F 84.6 °F 64.9 °F 54% 29.91 in 10.0 mi ENE 12.7 mph - N/A   Scattered Clouds
2:53 PM 81.0 °F 83.3 °F 66.9 °F 62% 29.90 in 10.0 mi East 10.4 mph 17.3 mph N/A   Scattered Clouds
3:53 PM 82.0 °F 84.5 °F 66.9 °F 60% 29.90 in 10.0 mi East 11.5 mph - N/A   Scattered Clouds
4:53 PM 80.1 °F 82.1 °F 66.0 °F 62% 29.90 in 10.0 mi East 8.1 mph - N/A   Scattered Clouds
5:53 PM 75.9 °F - 66.9 °F 74% 29.92 in 10.0 mi East 5.8 mph - N/A   Partly Cloudy
6:53 PM 73.9 °F - 66.9 °F 79% 29.94 in 10.0 mi Calm Calm - N/A   Partly Cloudy
7:53 PM 73.0 °F - 68.0 °F 84% 29.96 in 10.0 mi Calm Calm - N/A   Partly Cloudy
8:53 PM 71.1 °F - 68.0 °F 90% 29.98 in 10.0 mi WSW 5.8 mph - N/A   Partly Cloudy
9:53 PM 70.0 °F - 66.9 °F 90% 29.99 in 10.0 mi SW 5.8 mph - N/A   Scattered Clouds
10:53 PM 69.1 °F - 63.0 °F 81% 29.99 in 10.0 mi WSW 8.1 mph - N/A   Scattered Clouds
11:53 PM 68.0 °F - 63.0 °F 84% 29.98 in 10.0 mi SW 6.9 mph - 0.00 in   Mostly Cloudy